Kenosha, WI

7:24 AM CST on December 16, 2017 (GMT -0600)
Kenosha Regional

Weather History for KENW - August, 2014

Change the Weather History Date:

Sunday, August 17, 2014

  Actual Average Record
Temperature  
Mean Temperature 66 °F -  
Max Temperature 71 °F 80 °F - (0)
Min Temperature 62 °F 59 °F - (0)
Cooling Degree Days 1    
Growing Degree Days 16 (Base 50)    
Moisture  
Dew Point 61 °F    
Average Humidity 87    
Maximum Humidity 93    
Minimum Humidity 75    
Precipitation  
Precipitation 0.00 in - - ()
Sea Level Pressure  
Sea Level Pressure 29.99 in    
Wind  
Wind Speed 8 mph (NNE)    
Max Wind Speed 13 mph    
Max Gust Speed -    
Visibility 10 miles    
Events      
T = Trace of Precipitation, MM = Missing Value Source: NWS Daily Summary

Daily Weather History Graph

Daily Weather History Graph

Search for Another Location

Airport or City:

Trip Planner

Search our weather history database for the weather conditions in past years. The results will help you decide how hot, cold, wet, or windy it might be!

Date:

Astronomy

Aug. 17, 2014 Rise Set
Actual Time 6:00 AM CDT 7:50 PM CDT
Civil Twilight 5:30 AM CDT 8:20 PM CDT
Nautical Twilight 4:53 AM CDT 8:57 PM CDT
Astronomical Twilight 4:13 AM CDT 9:36 PM CDT
Moon No Moon Rise 1:56 PM CDT (8/17)
Length of Visible Light 14h 50m
Length of Day
13h 49m
Waning Gibbous, 48% of the Moon is Illuminated
Aug 17
Waning Gibbous
Aug 25
New
Sep 2
First Quarter
Sep 8
Full
Sep 15
Last Quarter

Hourly Weather History & Observations

Time (CDT) Temp. Dew Point Humidity Pressure Visibility Wind Dir Wind Speed Gust Speed Precip Events Conditions
12:21 AM 68.0 °F 66.0 °F 93% 29.96 in 6.0 mi North 6.9 mph - N/A   Overcast
12:42 AM 66.9 °F 64.9 °F 93% 29.96 in 6.0 mi North 5.8 mph - N/A   Overcast
12:53 AM 66.9 °F 64.9 °F 93% 29.94 in 6.0 mi North 5.8 mph - N/A   Overcast
1:20 AM 66.0 °F 64.0 °F 93% 29.95 in 9.0 mi North 3.5 mph - N/A   Overcast
2:08 AM 66.0 °F 63.0 °F 90% 29.95 in 10.0 mi NNE 4.6 mph - N/A   Overcast
2:34 AM 66.0 °F 64.0 °F 93% 29.95 in 10.0 mi NNE 6.9 mph - N/A   Overcast
2:53 AM 64.9 °F 63.0 °F 93% 29.95 in 9.0 mi NNE 8.1 mph - N/A   Overcast
3:53 AM 64.9 °F 63.0 °F 93% 29.95 in 8.0 mi NNE 9.2 mph - N/A   Overcast
4:00 AM 64.9 °F 63.0 °F 93% 29.96 in 9.0 mi NE 9.2 mph - N/A   Overcast
4:30 AM 64.0 °F 62.1 °F 93% 29.96 in 10.0 mi NNE 10.4 mph - N/A   Overcast
4:53 AM 64.0 °F 62.1 °F 93% 29.96 in 10.0 mi NNE 9.2 mph - N/A   Overcast
5:53 AM 63.0 °F 61.0 °F 93% 29.97 in 10.0 mi NE 8.1 mph - N/A   Overcast
6:53 AM 63.0 °F 61.0 °F 93% 29.98 in 10.0 mi NE 9.2 mph - N/A   Overcast
7:53 AM 63.0 °F 60.1 °F 90% 30.00 in 10.0 mi NNE 9.2 mph - N/A   Overcast
8:53 AM 63.0 °F 60.1 °F 90% 30.01 in 10.0 mi NNE 10.4 mph - N/A   Overcast
9:07 AM 63.0 °F 60.1 °F 90% 30.02 in 10.0 mi NNE 9.2 mph - N/A   Overcast
9:19 AM 63.0 °F 60.1 °F 90% 30.01 in 10.0 mi NNE 10.4 mph - N/A   Overcast
9:31 AM 64.0 °F 60.1 °F 87% 30.01 in 10.0 mi NNE 9.2 mph - N/A   Overcast
9:53 AM 66.0 °F 61.0 °F 84% 30.01 in 10.0 mi NE 10.4 mph - N/A   Overcast
10:48 AM 66.2 °F 60.8 °F 83% 30.02 in 10.0 mi NNE 9.2 mph - N/A   Overcast
10:53 AM 66.9 °F 61.0 °F 81% 30.01 in 10.0 mi NE 10.4 mph - N/A   Overcast
11:53 AM 68.0 °F 61.0 °F 78% 30.01 in 10.0 mi NNE 9.2 mph - N/A   Overcast
12:53 PM 69.1 °F 62.1 °F 78% 30.01 in 10.0 mi ENE 11.5 mph - N/A   Scattered Clouds
1:07 PM 70.0 °F 62.1 °F 76% 30.01 in 10.0 mi NE 12.7 mph - N/A   Mostly Cloudy
1:53 PM 69.1 °F 61.0 °F 75% 30.00 in 10.0 mi NNE 10.4 mph - N/A   Mostly Cloudy
2:00 PM 69.1 °F 62.1 °F 78% 30.01 in 10.0 mi NE 9.2 mph - N/A   Mostly Cloudy
2:53 PM 69.1 °F 61.0 °F 75% 30.00 in 10.0 mi NE 9.2 mph - N/A   Mostly Cloudy
3:40 PM 69.1 °F 61.0 °F 75% 30.00 in 10.0 mi Variable 6.9 mph - N/A   Scattered Clouds
3:53 PM 69.1 °F 61.0 °F 75% 30.00 in 10.0 mi ENE 10.4 mph - N/A   Partly Cloudy
4:53 PM 68.0 °F 61.0 °F 78% 29.98 in 10.0 mi NE 8.1 mph - N/A   Clear
5:53 PM 66.0 °F 60.1 °F 81% 29.99 in 10.0 mi NNE 8.1 mph - N/A   Clear
6:53 PM 64.0 °F 60.1 °F 87% 29.98 in 10.0 mi NNE 6.9 mph - N/A   Scattered Clouds
7:01 PM 64.0 °F 60.1 °F 87% 29.98 in 10.0 mi NNE 5.8 mph - N/A   Mostly Cloudy
7:38 PM 63.0 °F 59.0 °F 87% 29.98 in 10.0 mi NE 6.9 mph - N/A   Overcast
7:53 PM 62.1 °F 59.0 °F 90% 29.98 in 10.0 mi NNE 8.1 mph - N/A   Overcast
8:53 PM 62.1 °F 59.0 °F 90% 29.99 in 10.0 mi NNE 5.8 mph - N/A   Overcast
9:53 PM 62.1 °F 59.0 °F 90% 30.00 in 10.0 mi NNE 4.6 mph - N/A   Overcast
10:53 PM 62.1 °F 60.1 °F 93% 29.99 in 10.0 mi NE 4.6 mph - N/A   Overcast
11:53 PM 62.1 °F 60.1 °F 93% 29.98 in 10.0 mi ENE 4.6 mph - N/A   Overcast